Location: Dead Woman Crossing
(43.5369°N, 106.3228°W)
Time: 17:25:08
(UTC+00:00)

ZACube-1 - Pass Details

Date: 04 July 2022
Orbit: 582 x 661 km, 97.6° (Epoch: 09 August)

Event Time Altitude Azimuth Distance (km) Brightness Sun altitude
Rises 09:35:25 0° 35° (NE) 2,970 ? -15.7°
Reaches altitude 10° 09:39:21 10° 70° (ENE) 2,067 ? -15.3°
Maximum altitude 09:40:44 11° 88° (E) 1,985 ? -15.1°
Drops below altitude 10° 09:42:08 10° 106° (ESE) 2,070 ? -15.0°
Sets 09:46:03 0° 141° (SE) 2,982 ? -14.5°
